Regional Weather Roundup
Issued by NWS Green Bay, WI

Home | Current Version | Previous Version | Text Only | Print | Product List | Glossary On
Versions: 1 2 3 4 5 6 7 8 9 10 11 12 13 14 15 16 17 18 19 20 21 22 23 24 25 26 27 28 29 30 31 32 33 34 35 36 37 38 39 40 41 42 43 44 45 46 47 48 49 50
000
ASUS43 KGRB 241511
RWRGRB

NORTH-CENTRAL AND NORTHEAST WISCONSIN REGIONAL WEATHER ROUNDUP
NATIONAL WEATHER SERVICE GREEN BAY WI
1000 AM CDT FRI MAR 24 2017

WIZ005-009-010>012-018-019-241600-
NORTH CENTRAL WISCONSIN

CITY           SKY/WX    TMP DP  RH WIND       PRES   REMARKS
IRONWOOD       CLOUDY    33  32  96 N7        29.97R FOG
MANITOWISH WTR CLOUDY    32  32 100 N5        29.93R FOG
ARBOR VITAE    MIX PCPN  34  33  96 CALM      29.93R
EAGLE RIVER    RAIN      33  33 100 CALM      29.92R VSB 1
LAND O LAKES   MIX PCPN  33  33  99 N7        29.94R
RHINELANDER    LGT RAIN  35  34  96 CALM      29.94R FOG
PHILLIPS       LGT RAIN  33  33 100 NE3       29.93R
ANTIGO         LGT RAIN  33  33 100 N3        29.92R
TOMAHAWK       DRIZZLE   34  33  96 CALM      29.93R
MERRILL        LGT RAIN  35  35 100 NE7       29.89F
$$

WIZ013-073-241600-
NORTHEAST WISCONSIN

CITY           SKY/WX    TMP DP  RH WIND       PRES   REMARKS
IRON MOUNTAIN  LGT RAIN  34  31  88 CALM      29.92R FOG
MARINETTE        N/A    N/A N/A N/A MISG        N/A
OCONTO         CLOUDY    36  35  96 N5        29.94R
$$

WIZ017-030-035>037-045-241600-
CENTRAL WISCONSIN

CITY           SKY/WX    TMP DP  RH WIND       PRES   REMARKS
MEDFORD        RAIN      35  34  96 E5        29.92R
WAUSAU         CLOUDY    36  35  96 CALM      29.91R FOG
MOSINEE        LGT RAIN  36  36 100 N5        29.93R FOG
MARSHFIELD     CLOUDY    37  37 100 NE6       29.92R FOG
WISC RAPIDS    CLOUDY    38  38 100 NE7       29.93R FOG
STEVENS POINT  LGT RAIN  34  34 100 NE6       29.93R
WAUPACA        CLOUDY    39  36  88 N6        29.93R FOG
SHAWANO        CLOUDY    37  35  92 NE3       29.94R FOG
CLINTONVILLE   CLOUDY    36  34  93 NE7       29.93R FOG
WAUTOMA        CLOUDY    42  38  85 NE6       29.91R
$$

WIZ038-039-048-051-241600-
FOX VALLEY

CITY           SKY/WX    TMP DP  RH WIND       PRES   REMARKS
NWS GREEN BAY  CLOUDY    41  38  89 N6        29.92S FOG
APPLETON       CLOUDY    39  37  93 NE9       29.90R
OSHKOSH        PTSUNNY   42  36  79 NE8       29.89F
FOND DU LAC    CLOUDY    47  39  74 SE8       29.88F
$$

WIZ022-050-052-241600-
EAST CENTRAL WISCONSIN

CITY           SKY/WX    TMP DP  RH WIND       PRES   REMARKS
EPHRAIM        CLOUDY    35  35 100 NW7       29.94R FOG
WASHINGTON ISL DRIZZLE   34  34  99 N6        29.95R
STURGEON BAY   CLOUDY    37  36  96 N8        29.94R FOG
MANITOWOC      CLOUDY    43  36  76 N6        29.92R
SHEBOYGAN      CLOUDY    43  38  82 MISG      29.90R
$$

LMZ563-521-522-541>543-241600-
LAKESHORE

STATION/POSITION TIME  TEMP    WIND        PRES    VSBY  WAVE
                       AIR SEA DIR/SP/G                  HT/PER
                 (UTC) (F)     (DEG/KT/KT) (MB)    (MI)  (FT/S)
SHEBOYGAN LKSHOR 1500   40     160/  2/  3 1013.0R
KEWAUNEE LKSHORE 1442   41      CALM  /  1 1012.5S
NORTHPORT PIER   1440   35     310/  7/ 10 1014.2R
CHAMBERS ISLAND  1440   35     290/  2/  5 1013.9R
MENOMINEE LKSHOR 1442   35     310/  7/  7 1013.3R
$$



USA.gov is the U.S. government's official web portal to all federal, state and local government web resources and services.